Powrót do katalogu

STARLINK-36060

AktywnyŁącznośćVLEO
NORAD 67090·PAYLOAD·🇺🇸 United States

Wystrzelony Dec 14, 2025 z Vandenberg Space Force Base

Loading…

Następne Przeloty (najbliższe 24 godziny)

TLE

ŚwieżeSource: CelesTrak SupGP

Epoka: Sep 14, 2026, 21:21 UTC

1 67090C 25298R   26257.89006944  .00061181  00000+0  51262-2 0  2571
2 67090  69.9998 257.4126 0003633 267.6870 239.6885 14.98306045    14

Śledź STARLINK-36060 w czasie rzeczywistym z AllMySat

Download on the App Store